Weather History for Mt. Pocono, PA

Change the Weather History Date:

Tuesday, April 23, 2013

  Actual Average Record
Temperature  
Mean Temperature 41 °F 48 °F  
Max Temperature 48 °F 59 °F 82 °F (1960)
Min Temperature 33 °F 38 °F 19 °F (1914)
Degree Days  
Heating Degree Days 24 17  
Month to date heating degree days 466 486  
Since 1 July heating degree days 6338 6584  
Cooling Degree Days 0 0  
Month to date cooling degree days 1 0  
Year to date cooling degree days 1 0  
Moisture  
Dew Point 33 °F    
Average Humidity 74    
Maximum Humidity 89    
Minimum Humidity 58    
Precipitation  
Precipitation 0.00 in 0.11 in 2.10 in (1921)
Month to date precipitation 2.08 3.23  
Year to date precipitation 8.94 12.32  
Sea Level Pressure  
Sea Level Pressure 30.27 in    
Wind  
Wind Speed 6 mph (East)    
Max Wind Speed 14 mph    
Max Gust Speed 18 mph    
Visibility 10 miles    
Events      
T = Trace of Precipitation, MM = Missing Value Source: NWS Daily Summary

Daily Weather History Graph

Daily Weather History Graph

Search for Another Location

Airport:

Trip Planner

Search our weather history database for the weather conditions in past years. The results will help you decide how hot, cold, wet, or windy it might be!

Date:

Astronomy

Apr. 23, 2013 Rise Set
Actual Time 6:09 AM EDT 7:50 PM EDT
Civil Twilight 5:40 AM EDT 8:19 PM EDT
Nautical Twilight 5:05 AM EDT 8:55 PM EDT
Astronomical Twilight 4:27 AM EDT 9:33 PM EDT
Moon 5:41 PM EDT (4/23) 4:37 AM EDT (4/23)
Length of Visible Light 14h 38m
Length of Day
13h 40m
Waxing Gibbous, 94% of the Moon is Illuminated
Apr 23
Waxing Gibbous
Apr 25
Full
May 2
Last Quarter
May 9
New
May 18
First Quarter

Hourly Weather History & Observations

Time (EDT) Temp. Windchill Dew Point Humidity Pressure Visibility Wind Dir Wind Speed Gust Speed Precip Events Conditions
12:53 AM 34.0 °F 27.2 °F 26.1 °F 73% 30.45 in 10.0 mi East 8.1 mph - N/A   Clear
1:22 AM 33.8 °F 26.4 °F 26.6 °F 75% 30.39 in 10.0 mi East 9.2 mph - N/A   Mostly Cloudy
1:53 AM 34.0 °F 28.0 °F 28.0 °F 79% 30.42 in 10.0 mi East 6.9 mph - N/A   Overcast
2:42 AM 33.8 °F 27.0 °F 28.4 °F 81% 30.36 in 10.0 mi East 8.1 mph - N/A   Overcast
2:53 AM 34.0 °F 27.2 °F 28.9 °F 82% 30.40 in 10.0 mi East 8.1 mph - N/A   Overcast
3:53 AM 34.0 °F 27.2 °F 30.0 °F 85% 30.39 in 10.0 mi East 8.1 mph - N/A   Overcast
4:53 AM 34.0 °F 29.8 °F 30.0 °F 85% 30.38 in 10.0 mi East 4.6 mph - N/A   Overcast
6:53 AM 33.1 °F 25.5 °F 28.0 °F 82% 30.37 in 10.0 mi East 9.2 mph - N/A   Overcast
7:53 AM 33.1 °F 26.1 °F 28.0 °F 82% 30.38 in 10.0 mi East 8.1 mph - N/A   Overcast
8:45 AM 35.6 °F 28.6 °F 28.4 °F 75% 30.32 in 10.0 mi ENE 9.2 mph - N/A   Scattered Clouds
8:53 AM 36.0 °F 29.6 °F 28.9 °F 76% 30.37 in 10.0 mi ENE 8.1 mph - N/A   Partly Cloudy
9:53 AM 41.0 °F 38.0 °F 30.0 °F 65% 30.34 in 10.0 mi Variable 4.6 mph - N/A   Scattered Clouds
10:53 AM 44.1 °F 39.5 °F 30.9 °F 60% 30.32 in 10.0 mi ESE 8.1 mph - N/A   Clear
11:20 AM 44.6 °F 39.7 °F 30.2 °F 57% 30.27 in 10.0 mi ESE 9.2 mph 16.1 mph N/A   Mostly Cloudy
11:53 AM 46.0 °F 41.4 °F 32.0 °F 58% 30.30 in 10.0 mi East 9.2 mph - N/A   Overcast
12:53 PM 46.0 °F 41.4 °F 34.0 °F 63% 30.29 in 10.0 mi East 9.2 mph - N/A   Overcast
1:53 PM 45.0 °F 39.3 °F 35.1 °F 68% 30.25 in 9.0 mi ESE 11.5 mph - N/A   Overcast
2:53 PM 46.9 °F - 36.0 °F 66% 30.25 in 10.0 mi ESE 6.9 mph - N/A   Overcast
3:53 PM 46.0 °F 43.9 °F 37.9 °F 73% 30.26 in 9.0 mi ESE 4.6 mph - N/A   Overcast
4:53 PM 46.0 °F 42.5 °F 37.0 °F 71% 30.23 in 10.0 mi ESE 6.9 mph - N/A   Overcast
5:42 PM 46.4 °F 42.4 °F 39.2 °F 76% 30.17 in 10.0 mi ESE 8.1 mph - N/A   Overcast
5:53 PM 46.0 °F 42.5 °F 37.9 °F 73% 30.21 in 8.0 mi East 6.9 mph - N/A   Overcast
6:53 PM 45.0 °F 41.2 °F 37.9 °F 76% 30.19 in 10.0 mi East 6.9 mph - N/A   Overcast
7:28 PM 44.6 °F 40.7 °F 37.4 °F 76% 30.13 in 10.0 mi ESE 6.9 mph - N/A   Overcast
7:53 PM 45.0 °F 42.6 °F 37.9 °F 76% 30.18 in 10.0 mi ESE 4.6 mph - N/A   Overcast
8:30 PM 44.6 °F - 37.4 °F 76% 30.14 in 10.0 mi Calm Calm - N/A   Overcast
8:53 PM 45.0 °F - 37.0 °F 74% 30.18 in 10.0 mi Calm Calm - N/A   Overcast
9:53 PM 44.1 °F - 37.0 °F 76% 30.17 in 10.0 mi Calm Calm - N/A   Overcast
10:49 PM 44.6 °F - 37.4 °F 76% 30.13 in 10.0 mi Calm Calm - N/A   Overcast
10:53 PM 44.1 °F - 37.0 °F 76% 30.16 in 10.0 mi Calm Calm - N/A   Overcast
11:01 PM 42.8 °F - 37.4 °F 81% 30.12 in 10.0 mi Calm Calm - N/A   Overcast
11:53 PM 44.1 °F - 37.0 °F 76% 30.12 in 10.0 mi Calm Calm - N/A   Overcast